TimeCDT,TemperatureF,Dew PointF,Humidity,Sea Level PressureIn,VisibilityMPH,Wind Direction,Wind SpeedMPH,Gust SpeedMPH,PrecipitationIn,Events,Conditions,WindDirDegrees,DateUTC
12:53 AM,66.9,63.0,87,29.96,10.0,NNE,5.8,-,N/A,,Clear,30,2013-08-08 05:53:00
1:53 AM,66.0,63.0,90,29.97,10.0,North,4.6,-,N/A,,Clear,360,2013-08-08 06:53:00
2:53 AM,64.9,62.1,90,29.97,10.0,NNW,4.6,-,N/A,,Partly Cloudy,340,2013-08-08 07:53:00
3:53 AM,64.9,62.1,90,29.96,10.0,North,6.9,-,N/A,,Clear,10,2013-08-08 08:53:00
4:53 AM,64.9,61.0,87,29.94,10.0,NNE,8.1,-,N/A,,Mostly Cloudy,30,2013-08-08 09:53:00
5:53 AM,66.0,61.0,84,29.95,10.0,NNE,9.2,-,N/A,,Overcast,30,2013-08-08 10:53:00
6:09 AM,66.2,60.8,83,29.97,10.0,NNE,8.1,-,N/A,,Mostly Cloudy,30,2013-08-08 11:09:00
6:53 AM,66.0,61.0,84,29.97,10.0,North,5.8,-,N/A,,Scattered Clouds,360,2013-08-08 11:53:00
7:53 AM,69.1,63.0,81,29.97,10.0,NE,9.2,-,N/A,,Clear,50,2013-08-08 12:53:00
8:53 AM,71.1,63.0,75,29.97,10.0,ENE,6.9,-,N/A,,Clear,60,2013-08-08 13:53:00
9:53 AM,73.0,63.0,71,29.99,10.0,East,5.8,-,N/A,,Clear,80,2013-08-08 14:53:00
10:53 AM,75.0,64.0,69,30.00,10.0,NE,5.8,-,N/A,,Scattered Clouds,50,2013-08-08 15:53:00
11:53 AM,75.9,64.0,67,29.98,10.0,East,5.8,-,N/A,,Clear,90,2013-08-08 16:53:00
12:53 PM,79.0,66.0,64,29.96,10.0,NNE,5.8,-,N/A,,Partly Cloudy,20,2013-08-08 17:53:00
1:53 PM,80.1,64.9,60,29.96,10.0,NNE,10.4,-,N/A,,Scattered Clouds,30,2013-08-08 18:53:00
2:53 PM,80.1,64.9,60,29.95,10.0,Variable,5.8,-,N/A,,Clear,0,2013-08-08 19:53:00
3:53 PM,81.0,64.9,58,29.95,10.0,NNE,5.8,-,N/A,,Clear,20,2013-08-08 20:53:00
4:53 PM,79.0,64.0,60,29.96,10.0,NNE,8.1,-,N/A,,Clear,30,2013-08-08 21:53:00
5:53 PM,78.1,64.0,62,29.96,10.0,NNE,6.9,-,N/A,,Clear,30,2013-08-08 22:53:00
6:53 PM,77.0,64.9,66,29.96,10.0,NE,5.8,-,N/A,,Clear,40,2013-08-08 23:53:00
7:53 PM,75.9,66.0,71,29.97,10.0,NNE,4.6,-,N/A,,Clear,30,2013-08-09 00:53:00
8:53 PM,73.0,66.0,79,29.97,10.0,NNE,4.6,-,N/A,,Clear,30,2013-08-09 01:53:00
9:53 PM,70.0,66.0,87,29.98,10.0,Calm,Calm,-,N/A,,Clear,0,2013-08-09 02:53:00
10:53 PM,70.0,66.0,87,29.99,10.0,Calm,Calm,-,N/A,,Clear,0,2013-08-09 03:53:00
11:53 PM,66.9,64.0,90,30.00,10.0,Calm,Calm,-,N/A,,Clear,0,2013-08-09 04:53:00